MST,Max TemperatureF,Mean TemperatureF,Min TemperatureF,Max Dew PointF,MeanDew PointF,Min DewpointF,Max Humidity, Mean Humidity, Min Humidity, Max Sea Level PressureIn, Mean Sea Level PressureIn, Min Sea Level PressureIn, Max VisibilityMiles, Mean VisibilityMiles, Min VisibilityMiles, Max Wind SpeedMPH, Mean Wind SpeedMPH, Max Gust SpeedMPH,PrecipitationIn, CloudCover, Events, WindDirDegrees
2013-3-1,64,45,26,22,15,8,54,35,16,30.41,30.33,30.23,10,10,10,12,5,,0.00,0,,203
2013-3-2,72,51,30,24,21,13,66,38,12,30.34,30.23,30.09,10,10,10,10,5,26,0.00,0,,206
2013-3-3,62,50,37,25,21,15,57,34,17,30.08,29.96,29.84,10,10,10,16,8,21,0.00,3,,185
2013-3-4,62,49,36,33,26,19,65,39,23,30.04,29.88,29.78,10,10,10,15,7,21,0.00,2,,223
2013-3-5,63,48,32,31,24,15,82,44,19,30.13,30.04,29.97,10,10,10,14,5,22,0.00,0,,157
2013-3-6,64,50,37,29,23,16,63,39,16,30.00,29.92,29.86,10,10,10,17,6,22,0.00,0,,191
2013-3-7,61,46,30,26,22,16,69,38,18,30.01,29.91,29.77,10,10,10,23,7,30,0.00,0,,187
2013-3-8,50,40,30,37,32,26,96,84,39,29.88,29.78,29.65,10,6,0,26,12,32,0.22,7,Fog-Rain-Snow,198
2013-3-9,39,34,30,34,30,27,100,87,75,30.10,29.94,29.84,10,7,0,21,7,26,0.02,7,Fog-Snow,232
2013-3-10,55,42,28,30,26,19,96,57,24,30.20,30.14,30.08,10,10,10,16,7,23,0.00,0,,311
2013-3-11,64,46,28,27,22,14,75,46,16,30.18,30.11,30.02,10,10,10,13,5,,0.00,0,,213
2013-3-12,70,50,30,29,24,16,72,40,13,30.14,30.08,30.03,10,10,10,10,5,,0.00,0,,187
2013-3-13,73,54,35,31,26,18,73,42,13,30.21,30.15,30.09,10,10,10,8,4,,0.00,0,,204
2013-3-14,78,58,37,34,24,12,60,35,8,30.22,30.13,30.06,10,10,10,13,6,18,0.00,0,,177
2013-3-15,77,60,43,30,25,15,60,33,10,30.06,29.97,29.88,10,10,9,20,6,23,0.00,0,,213
2013-3-16,73,60,46,32,25,18,58,29,13,29.92,29.81,29.71,10,10,10,20,8,41,0.00,1,,210
2013-3-17,72,57,42,29,10,-9,53,22,4,29.92,29.79,29.70,10,10,10,22,9,31,0.00,0,,266
2013-3-18,69,56,44,24,14,3,36,19,10,29.93,29.88,29.81,10,10,10,18,10,24,0.00,0,,229
2013-3-19,69,58,48,28,23,17,43,27,14,30.02,29.92,29.85,10,10,10,9,5,,0.00,2,,180
2013-3-20,66,54,43,30,26,21,56,34,19,30.01,29.92,29.76,10,10,10,18,6,28,0.00,0,,206
2013-3-21,71,58,42,32,19,-2,52,28,7,29.77,29.71,29.63,10,10,10,17,7,23,0.00,0,,277
2013-3-22,66,51,36,22,12,-9,49,24,8,29.76,29.69,29.64,10,10,10,15,8,26,0.00,1,,249
2013-3-23,57,45,33,6,-4,-16,31,15,5,30.07,29.92,29.77,10,10,10,18,9,29,0.00,0,,321
2013-3-24,64,46,27,12,5,-3,39,21,10,30.05,29.96,29.86,10,10,10,18,6,29,0.00,0,,273
2013-3-25,66,48,30,19,11,6,45,23,12,30.01,29.95,29.90,10,10,10,14,3,18,0.00,0,,218
2013-3-26,68,54,39,23,16,13,42,25,13,29.92,29.88,29.82,10,10,10,18,7,30,0.00,0,,196
2013-3-27,66,54,42,24,17,11,45,26,11,30.05,29.89,29.83,10,10,10,16,8,26,0.00,0,,193
2013-3-28,66,52,37,27,22,18,55,31,16,30.02,29.98,29.93,10,10,10,15,8,22,0.00,0,,199
2013-3-29,71,55,39,27,24,19,60,31,14,30.09,30.04,29.98,10,10,10,13,6,,0.00,0,,189
2013-3-30,68,56,45,30,26,22,54,34,19,30.06,30.02,29.97,10,10,10,13,5,24,0.00,3,,213
2013-3-31,72,56,41,33,26,20,57,34,15,30.01,29.94,29.88,10,10,10,16,7,25,0.00,1,,200